Weather History for GMMN - February, 2013

Change the Weather History Date:

Wednesday, February 20, 2013

  Actual Average Record
Temperature  
Mean Temperature 53 °F -  
Max Temperature 63 °F 67 °F 78 °F (1998)
Min Temperature 42 °F 45 °F 32 °F (2003)
Degree Days  
Heating Degree Days 12    
Growing Degree Days 3 (Base 50)    
Moisture  
Dew Point 45 °F    
Average Humidity 77    
Maximum Humidity 93    
Minimum Humidity 45    
Precipitation  
Precipitation 0.04 in - - ()
Sea Level Pressure  
Sea Level Pressure 30.04 in    
Wind  
Wind Speed 6 mph ()    
Max Wind Speed 12 mph    
Max Gust Speed 18 mph    
Visibility 5.6 miles    
Events Rain    
Averages and records for this station are not official NWS values.
T = Trace of Precipitation, MM = Missing Value Source: Averaged Metar Reports

Daily Weather History Graph

Daily Weather History Graph

Search for Another Location

Airport or City:

Trip Planner

Search our weather history database for the weather conditions in past years. The results will help you decide how hot, cold, wet, or windy it might be!

Date:

Astronomy

Feb. 20, 2013 Rise Set
Actual Time 7:08 AM WET 6:19 PM WET
Civil Twilight 6:43 AM WET 6:44 PM WET
Nautical Twilight 6:14 AM WET 7:13 PM WET
Astronomical Twilight 5:46 AM WET 7:42 PM WET
Moon 1:38 PM WET (2/20) 3:09 AM WET (2/20)
Length of Visible Light 12h 01m
Length of Day
11h 10m
Waxing Gibbous, 74% of the Moon is Illuminated
Feb 20
Waxing Gibbous
Feb 25
Full
Mar 4
Last Quarter
Mar 11
New
Mar 19
First Quarter

Hourly Weather History & Observations

Time (WET) Temp. Windchill Dew Point Humidity Pressure Visibility Wind Dir Wind Speed Gust Speed Precip Events Conditions
12:00 AM 44 °F - 41 °F 86% 30.01 in 6 mi SSW 8.1 mph - -   Partly Cloudy
12:30 AM 44.6 °F 40.2 °F 41.0 °F 87% 29.98 in 6.2 mi SSW 8.1 mph - N/A   Mostly Cloudy
1:00 AM 46.4 °F 42.9 °F 42.8 °F 87% 29.98 in 6.2 mi WNW 6.9 mph 18.4 mph N/A   Mostly Cloudy
1:30 AM 48.2 °F - 44.6 °F 87% 29.98 in 6.2 mi NNE 4.6 mph - N/A   Mostly Cloudy
2:00 AM 46.4 °F 41.9 °F 42.8 °F 87% 29.98 in 6.2 mi South 9.2 mph - N/A   Mostly Cloudy
2:30 AM 44.6 °F 40.2 °F 42.8 °F 93% 29.98 in 6.2 mi SSW 8.1 mph - N/A   Mostly Cloudy
3:00 AM 46 °F - 44 °F 89% 29.99 in 6 mi SSW 9.2 mph - -   Clear
3:00 AM 46.4 °F 41.9 °F 44.6 °F 93% 29.98 in 6.2 mi SSW 9.2 mph - N/A   Mostly Cloudy
3:30 AM 46.4 °F 42.4 °F 42.8 °F 87% 29.98 in 6.2 mi South 8.1 mph - N/A   Mostly Cloudy
4:00 AM 46.4 °F 42.9 °F 44.6 °F 93% 29.98 in 6.2 mi SW 6.9 mph - N/A   Mostly Cloudy
4:30 AM 46.4 °F 42.9 °F 42.8 °F 87% 29.98 in 6.2 mi SSW 6.9 mph - N/A   Mostly Cloudy
5:00 AM 46.4 °F 45.2 °F 44.6 °F 93% 29.98 in 6.2 mi ENE 3.5 mph - N/A   Mostly Cloudy
5:30 AM 46.4 °F 44.3 °F 44.6 °F 93% 29.98 in 6.2 mi NE 4.6 mph - N/A   Mostly Cloudy
6:00 AM 48 °F - 45 °F 87% 30.03 in 6 mi NNW 3.5 mph - - Rain Light Rain
6:00 AM 48.2 °F - 44.6 °F 87% 30.01 in 3.7 mi NNW 3.5 mph - N/A Rain Rain
6:30 AM 48.2 °F - 44.6 °F 87% 30.01 in 4.3 mi NE 6.9 mph - N/A Rain Light Rain
7:00 AM 48.2 °F - 44.6 °F 87% 30.04 in 4.3 mi SSE 4.6 mph - N/A   Mostly Cloudy
7:30 AM 48.2 °F - 44.6 °F 87% 30.04 in 4.3 mi SSE 4.6 mph - N/A   Mostly Cloudy
8:00 AM 48.2 °F - 46.4 °F 93% 30.01 in 6.2 mi SSE 9.2 mph - N/A   Mostly Cloudy
8:30 AM 48.2 °F - 46.4 °F 93% 30.04 in - South 8.1 mph - N/A   Mostly Cloudy
8:35 AM 50.0 °F - 46.4 °F 87% 30.04 in 2.5 mi South 6.9 mph - N/A   Mostly Cloudy
9:00 AM 50 °F - 47 °F 86% 30.07 in 2 mi South 8.1 mph - -   Mist
9:00 AM 50.0 °F - 46.4 °F 87% 30.04 in 1.9 mi South 8.1 mph - N/A   Scattered Clouds
9:25 AM 51.8 °F - 48.2 °F 88% 30.06 in 3.1 mi South 11.5 mph - N/A   Scattered Clouds
9:30 AM 51.8 °F - 48.2 °F 88% 30.06 in 3.1 mi South 11.5 mph - N/A   Scattered Clouds
10:00 AM 51.8 °F - 48.2 °F 88% 30.06 in 3.7 mi South 9.2 mph - N/A   Scattered Clouds
10:30 AM 55.4 °F - 48.2 °F 77% 30.06 in 6.2 mi South 8.1 mph - N/A   Scattered Clouds
11:00 AM 55.4 °F - 48.2 °F 77% 30.06 in 5.0 mi SSW 8.1 mph - N/A   Scattered Clouds
12:00 PM 58 °F - 47 °F 58% 30.08 in 6 mi SSW 8.1 mph - -   Partly Cloudy
12:00 PM 59.0 °F - 46.4 °F 63% 30.06 in 6.2 mi SSW 8.1 mph - N/A   Mostly Cloudy
12:30 PM 59.0 °F - 46.4 °F 63% 30.06 in 6.2 mi WSW 6.9 mph - N/A   Mostly Cloudy
1:00 PM 59.0 °F - 46.4 °F 63% 30.06 in 6.2 mi SW 6.9 mph - N/A   Mostly Cloudy
1:30 PM 59.0 °F - 46.4 °F 63% 30.06 in 6.2 mi SW 9.2 mph - N/A   Mostly Cloudy
2:00 PM 60.8 °F - 46.4 °F 59% 30.04 in 6.2 mi SW 11.5 mph - N/A   Mostly Cloudy
2:30 PM 62.6 °F - 46.4 °F 55% 30.04 in 6.2 mi SSW 8.1 mph - N/A   Mostly Cloudy
3:00 PM 61 °F - 46 °F 46% 30.05 in 6 mi WSW 6.9 mph - -   Clear
3:00 PM 60.8 °F - 46.4 °F 59% 30.04 in 6.2 mi WSW 6.9 mph - N/A   Mostly Cloudy
3:30 PM 60.8 °F - 46.4 °F 59% 30.04 in 6.2 mi SW 3.5 mph - N/A   Mostly Cloudy
4:00 PM 62.6 °F - 46.4 °F 55% 30.04 in 6.2 mi WSW 5.8 mph - N/A   Mostly Cloudy
4:30 PM 62.6 °F - 46.4 °F 55% 30.04 in 6.2 mi WSW 6.9 mph - N/A   Mostly Cloudy
5:00 PM 62.6 °F - 44.6 °F 52% 30.04 in 6.2 mi WSW 5.8 mph - N/A   Mostly Cloudy
5:30 PM 60.8 °F - 44.6 °F 55% 30.06 in 6.2 mi WSW 4.6 mph - N/A   Mostly Cloudy
6:00 PM 61 °F - 45 °F 45% 30.06 in 6 mi SW 2.3 mph - -   Partly Cloudy
6:00 PM 60.8 °F - 44.6 °F 55% 30.06 in 6.2 mi SW 2.3 mph - N/A   Scattered Clouds
6:30 PM 57.2 °F - 46.4 °F 67% 30.06 in 6.2 mi North 5.8 mph - N/A   Scattered Clouds
7:00 PM 55.4 °F - 46.4 °F 72% 30.06 in 6.2 mi NE 5.8 mph - N/A   Scattered Clouds
7:30 PM 53.6 °F - 46.4 °F 77% 30.09 in 6.2 mi NE 4.6 mph - N/A   Scattered Clouds
8:00 PM 53.6 °F - 46.4 °F 77% 30.09 in 6.2 mi NE 4.6 mph - N/A   Scattered Clouds
8:30 PM 51.8 °F - 44.6 °F 76% 30.09 in 6.2 mi Calm Calm - N/A   Scattered Clouds
9:00 PM 50 °F - 45 °F 76% 30.13 in 6 mi Calm Calm - -   Partly Cloudy
9:00 PM 50.0 °F - 44.6 °F 82% 30.09 in 6.2 mi Calm Calm - N/A   Partly Cloudy
9:30 PM 48.2 °F - 44.6 °F 87% 30.09 in 6.2 mi Calm Calm - N/A   Partly Cloudy
10:00 PM 48.2 °F - 44.6 °F 87% 30.12 in - SE 1.2 mph - N/A   Clear
10:30 PM 46.4 °F 45.2 °F 42.8 °F 87% 30.12 in - SE 3.5 mph - N/A   Clear
11:00 PM 46.4 °F 44.3 °F 42.8 °F 87% 30.09 in - SE 4.6 mph - N/A   Clear
11:30 PM 42.8 °F 39.3 °F 39.2 °F 87% 30.12 in 5.0 mi South 5.8 mph - N/A   Unknown